{"data":{"norad_id":64231,"intl_designator":"2025-118B","name":"GLOBAL-32","alt_names":[],"object_type":"PAYLOAD","status":"ACTIVE","operator":null,"country":"US","launch_date":"2025-06-02","launch_site_code":"RLLB","launch_vehicle":null,"mission":null,"orbit_class":"UNKNOWN","rcs_meters":null,"size_class":null,"mass_kg":null,"dimensions":null,"purposes":[],"wikipedia_slug":null,"has_3d_model":false,"image_url":null,"decayed_at":null,"tle_current":{"epoch":"2026-05-24T22:17:24.490752Z","epoch_age_seconds":84316,"freshness":"FRESH","line1":"1 64231U 25118B   26144.92875568  .00010578  00000+0  28831-3 0  9995","line2":"2 64231  58.9931 226.4214 0010203  24.7808 335.3756 15.38014220 54668","mean_motion":15.3801422,"eccentricity":0.0010203,"inclination_deg":58.9931,"raan_deg":226.4214,"arg_perigee_deg":24.7808,"mean_anomaly_deg":335.3756,"bstar":0.00028831,"rev_number":5466,"period_min":93.627222770411,"perigee_km":445.01328792064,"apogee_km":458.9508288712,"semimajor_km":6830.1190583959,"source":"CELESTRAK","updated_at":"2026-05-25T13:38:04.342752Z"}}}